Weather Roundup
Issued by NWS Chicago, IL

Home | Current Version | Previous Version | Text Only | Print | Product List | Glossary Off
Versions: 1 2 3 4 5 6 7 8 9 10 11 12 13 14 15 16 17 18 19 20 21 22 23 24 25 26 27 28 29 30 31 32 33 34 35 36 37 38 39 40 41 42 43 44 45 46 47 48 49 50

000
NZUS59 KLOT 031608
HRRLOT

CHICAGO AREA WEATHER ROUNDUP
NATIONAL WEATHER SERVICE CHICAGO/ROMEOVILLE IL
1100 AM CDT MON AUG 03 2015

NOTE: "FAIR" INDICATES FEW OR NO CLOUDS BELOW 12,000 FEET WITH NO
SIGNIFICANT WEATHER AND/OR OBSTRUCTIONS TO VISIBILITY.

* THESE STATIONS ARE NOT UNDER NWS QUALITY CONTROL. THEY ALSO MAY NOT
  REPORT WEATHER SUCH AS PRECIPITATION OR FOG.

ILZ005-006-012>014-019>023-031700-
NORTHEAST ILLINOIS

CITY           SKY/WX    TMP DP  RH WIND       PRES   REMARKS
OHARE          MOSUNNY   77  56  48 W10       29.86R
MIDWAY         MOSUNNY   79  55  43 NW12      29.85S
AURORA         SUNNY     77  61  57 NW10      29.88R
LANSING*       MOSUNNY   79  58  48 N5        29.86R HX  80
JOLIET*        SUNNY     80  60  50 N8        29.87R HX  81
WAUKEGAN       SUNNY     75  54  47 W8        29.86R
DUPAGE AIRPORT SUNNY     76  56  49 NW8       29.87R
WHEELING       NOT AVBL
KANKAKEE*      SUNNY     81  64  55 NW7       29.87R HX  82
MORRIS*        SUNNY     78  62  56 N3        29.87R HX  80
LEWIS AIRPORT* SUNNY     77  58  52 N6        29.87R
NORTHERLY IS     N/A     75  62  64 N7          N/A
$$

WIZ051-052-058>065-066-070>072-031700-
SOUTHEAST WISCONSIN

CITY           SKY/WX    TMP DP  RH WIND       PRES   REMARKS
MILWAUKEE      MOSUNNY   76  45  33 NW16      29.84R
KENOSHA*       SUNNY     75  54  47 W14G20    29.86R
RACINE*        SUNNY     76  49  38 W15G21    29.86R
BURLINGTON     SUNNY     75  44  32 W14G21    29.87R
WAUKESHA       SUNNY     73  43  33 NW14G23   29.86S
WEST BEND      SUNNY     72  48  43 W12G18    29.85R
$$

INZ001>003-010>013-019-020-031700-
NORTHWEST INDIANA

CITY           SKY/WX    TMP DP  RH WIND       PRES   REMARKS
GARY*          MOSUNNY   77  61  57 N7        29.87R
MICHIGAN CITY* NOT AVBL
RENSSELAER*    NOT AVBL
VALPARAISO     MOSUNNY   77  66  68 VRB6      29.87R
$$

LMZ740>746-031700-
SOUTHERN LAKE MICHIGAN

STATION/POSITION TIME  SKY/WX   TEMP WIND        PRES    VSBY
                                AIR  DIR/SP/G
                 (UTC)          (F)  (DEG/KT/KT) (MB)    (MI)
HARRISON CRIB    1500            70  340/ 11/ 12   N/A
BURNHAM HARBOR   1600            76  340/  6/  9   N/A
CALUMET HARBOR   1500            74  340/ 11/ 12   N/A
BURNS HARBOR     1500            71  330/  9/ 11 1011.2R
MICHIGAN CITY    1500            72  290/ 11/ 13   N/A
$$

ABBREVIATIONS USED IN REMARKS
   TC - TEMPERATURE IN CELSIUS
  WCI - WIND CHILL INDEX
   HX - HEAT INDEX
  VSB - VISIBILITY
$$



USA.gov is the U.S. government's official web portal to all federal, state and local government web resources and services.